| time (UTC) | temp F | wind direction | speed MPH | gust MPH | rain 1hr in | rain 24hr in | rain mn in | humidity % | barometer mb |
| 20260503220445 | 84 | 74 | 7.0 | 8.0 | 0.00 | 0.00 | 0.00 | 66 | 1009.2 |
| 20260503215942 | 84 | 51 | 4.0 | 6.0 | 0.00 | 0.00 | 0.00 | 66 | 1009.2 |
| 20260503215439 | 84 | 103 | 6.0 | 7.0 | 0.00 | 0.00 | 0.00 | 66 | 1009.5 |
| 20260503214937 | 85 | 61 | 6.0 | 7.0 | 0.00 | 0.00 | 0.00 | 64 | 1009.3 |
| 20260503214435 | 85 | 97 | 5.0 | 7.0 | 0.00 | 0.00 | 0.00 | 64 | 1009.3 |
| 20260503213932 | 85 | 96 | 5.0 | 6.0 | 0.00 | 0.00 | 0.00 | 63 | 1008.9 |
| 20260503213430 | 85 | 101 | 4.0 | 7.0 | 0.00 | 0.00 | 0.00 | 63 | 1009.3 |
| 20260503212926 | 86 | 140 | 6.0 | 9.0 | 0.00 | 0.00 | 0.00 | 62 | 1009.3 |
| 20260503212423 | 86 | 88 | 8.0 | 9.0 | 0.00 | 0.00 | 0.00 | 61 | 1009.1 |
| 20260503211921 | 86 | 71 | 4.0 | 6.0 | 0.00 | 0.00 | 0.00 | 61 | 1009.1 |
| 20260503211417 | 86 | 84 | 5.0 | 6.0 | 0.00 | 0.00 | 0.00 | 63 | 1008.9 |
| 20260503210913 | 86 | 121 | 6.0 | 7.0 | 0.00 | 0.00 | 0.00 | 61 | 1009.0 |
| 20260503210410 | 86 | 73 | 7.0 | 8.0 | 0.00 | 0.00 | 0.00 | 60 | 1009.1 |
| 20260503205910 | 87 | 112 | 7.0 | 9.0 | 0.00 | 0.00 | 0.00 | 62 | 1009.1 |
| 20260503205408 | 87 | 103 | 3.0 | 4.0 | 0.00 | 0.00 | 0.00 | 60 | 1009.0 |
| 20260503204904 | 88 | 107 | 3.0 | 6.0 | 0.00 | 0.00 | 0.00 | 59 | 1008.9 |
| 20260503204401 | 87 | 39 | 5.0 | 6.0 | 0.00 | 0.00 | 0.00 | 60 | 1009.1 |
| 20260503203858 | 87 | 168 | 6.0 | 7.0 | 0.00 | 0.00 | 0.00 | 58 | 1009.2 |
| 20260503203355 | 88 | 90 | 4.0 | 6.0 | 0.00 | 0.00 | 0.00 | 56 | 1009.0 |
| 20260503202852 | 88 | 96 | 8.0 | 9.0 | 0.00 | 0.00 | 0.00 | 57 | 1009.0 |
| 20260503202350 | 88 | 66 | 9.0 | 11.0 | 0.00 | 0.00 | 0.00 | 55 | 1009.1 |
| 20260503201849 | 88 | 109 | 7.0 | 8.0 | 0.00 | 0.00 | 0.00 | 57 | 1009.2 |
| 20260503201345 | 88 | 90 | 5.0 | 7.0 | 0.00 | 0.00 | 0.00 | 57 | 1009.1 |
| 20260503200843 | 88 | 102 | 10.0 | 13.0 | 0.00 | 0.00 | 0.00 | 57 | 1009.3 |
| 20260503200338 | 89 | 108 | 9.0 | 9.0 | 0.00 | 0.00 | 0.00 | 55 | 1009.4 |
| 20260503195836 | 89 | 119 | 10.0 | 11.0 | 0.00 | 0.00 | 0.00 | 54 | 1009.3 |
| 20260503195332 | 89 | 65 | 6.0 | 8.0 | 0.00 | 0.00 | 0.00 | 56 | 1009.4 |
| 20260503194830 | 88 | 110 | 7.0 | 8.0 | 0.00 | 0.00 | 0.00 | 56 | 1009.4 |
| 20260503194325 | 89 | 174 | 6.0 | 7.0 | 0.00 | 0.00 | 0.00 | 55 | 1009.3 |
| 20260503193822 | 88 | 99 | 9.0 | 9.0 | 0.00 | 0.00 | 0.00 | 55 | 1009.5 |
| 20260503193318 | 89 | 82 | 7.0 | 9.0 | 0.00 | 0.00 | 0.00 | 55 | 1009.3 |
| 20260503192814 | 89 | 85 | 7.0 | 9.0 | 0.00 | 0.00 | 0.00 | 53 | 1009.5 |
| 20260503192309 | 89 | 73 | 9.0 | 11.0 | 0.00 | 0.00 | 0.00 | 52 | 1009.5 |
| 20260503191806 | 90 | 64 | 8.0 | 9.0 | 0.00 | 0.00 | 0.00 | 50 | 1009.3 |
| 20260503191303 | 89 | 108 | 5.0 | 6.0 | 0.00 | 0.00 | 0.00 | 53 | 1009.6 |
| 20260503190800 | 90 | 126 | 10.0 | 13.0 | 0.00 | 0.00 | 0.00 | 50 | 1009.8 |
| 20260503190257 | 90 | 121 | 4.0 | 4.0 | 0.00 | 0.00 | 0.00 | 54 | 1009.6 |
| 20260503185754 | 89 | 107 | 8.0 | 13.0 | 0.00 | 0.00 | 0.00 | 53 | 1009.8 |
| 20260503185249 | 89 | 123 | 10.0 | 11.0 | 0.00 | 0.00 | 0.00 | 54 | 1009.9 |
| 20260503184744 | 88 | 93 | 11.0 | 11.0 | 0.00 | 0.00 | 0.00 | 55 | 1009.8 |
| 20260503184241 | 88 | 106 | 9.0 | 14.0 | 0.00 | 0.00 | 0.00 | 54 | 1009.8 |
| 20260503183737 | 88 | 89 | 11.0 | 14.0 | 0.00 | 0.00 | 0.00 | 54 | 1009.9 |
| 20260503183235 | 89 | 89 | 9.0 | 11.0 | 0.00 | 0.00 | 0.00 | 54 | 1010.0 |
| 20260503182732 | 89 | 102 | 9.0 | 11.0 | 0.00 | 0.00 | 0.00 | 51 | 1010.1 |
| 20260503182231 | 89 | 37 | 9.0 | 10.0 | 0.00 | 0.00 | 0.00 | 47 | 1010.1 |
| 20260503181728 | 89 | 52 | 6.0 | 7.0 | 0.00 | 0.00 | 0.00 | 52 | 1010.1 |
| 20260503181224 | 89 | 120 | 9.0 | 11.0 | 0.00 | 0.00 | 0.00 | 50 | 1010.2 |
| 20260503180721 | 89 | 134 | 7.0 | 9.0 | 0.00 | 0.00 | 0.00 | 49 | 1010.0 |
| 20260503180219 | 90 | 53 | 5.0 | 6.0 | 0.00 | 0.00 | 0.00 | 50 | 1010.2 |
| 20260503175715 | 90 | 100 | 11.0 | 13.0 | 0.00 | 0.00 | 0.00 | 47 | 1010.6 |
| 20260503175214 | 89 | 118 | 10.0 | 11.0 | 0.00 | 0.00 | 0.00 | 51 | 1010.5 |
| 20260503174709 | 89 | 93 | 12.0 | 13.0 | 0.00 | 0.00 | 0.00 | 48 | 1010.5 |
| 20260503174207 | 90 | 180 | 7.0 | 10.0 | 0.00 | 0.00 | 0.00 | 52 | 1010.5 |
| 20260503173707 | 90 | 103 | 8.0 | 9.0 | 0.00 | 0.00 | 0.00 | 48 | 1010.6 |
| 20260503173204 | 89 | 105 | 11.0 | 13.0 | 0.00 | 0.00 | 0.00 | 49 | 1010.6 |
| 20260503172701 | 89 | 59 | 8.0 | 14.0 | 0.00 | 0.00 | 0.00 | 49 | 1010.8 |
| 20260503172158 | 89 | 64 | 12.0 | 14.0 | 0.00 | 0.00 | 0.00 | 53 | 1010.6 |
| 20260503171654 | 89 | 38 | 8.0 | 10.0 | 0.00 | 0.00 | 0.00 | 52 | 1010.9 |
| 20260503171152 | 89 | 95 | 9.0 | 11.0 | 0.00 | 0.00 | 0.00 | 54 | 1011.0 |
| 20260503170648 | 90 | 24 | 10.0 | 11.0 | 0.00 | 0.00 | 0.00 | 52 | 1011.0 |
| 20260503170145 | 89 | 72 | 6.0 | 9.0 | 0.00 | 0.00 | 0.00 | 52 | 1011.1 |
| 20260503160107 | 88 | 104 | 8.0 | 9.0 | 0.00 | 0.00 | 0.00 | 59 | 1011.1 |
| 20260503150537 | 87 | 109 | 4.0 | 6.0 | 0.00 | 0.00 | 0.00 | 66 | 1011.5 |
| 20260503130927 | 87 | 75 | 5.0 | 6.0 | 0.00 | 0.00 | 0.00 | 56 | 1012.0 |
| 20260503130425 | 87 | 37 | 6.0 | 7.0 | 0.00 | 0.00 | 0.00 | 57 | 1011.8 |
| 20260503110823 | 78 | 6 | 0.0 | 0.0 | 0.00 | 0.00 | 0.00 | 74 | 1010.9 |
| 20260503110320 | 78 | 6 | 1.0 | 1.0 | 0.00 | 0.00 | 0.00 | 73 | 1011.0 |
| 20260503100246 | 71 | 16 | 1.0 | 1.0 | 0.00 | 0.00 | 0.00 | 87 | 1010.4 |
| 20260503090212 | 71 | 15 | 0.0 | 1.0 | 0.00 | 0.00 | 0.00 | 86 | 1010.1 |
| 20260503081138 | 72 | 26 | 0.0 | 0.0 | 0.00 | 0.00 | 0.00 | 84 | 1010.1 |
| 20260503080634 | 72 | 26 | 0.0 | 0.0 | 0.00 | 0.00 | 0.00 | 84 | 1010.0 |
| 20260503080132 | 72 | 26 | 0.0 | 0.0 | 0.00 | 0.00 | 0.00 | 84 | 1009.9 |
| 20260503072608 | 72 | 26 | 0.0 | 0.0 | 0.00 | 0.00 | 0.00 | 84 | 1010.0 |
| 20260503072105 | 73 | 26 | 0.0 | 0.0 | 0.00 | 0.00 | 0.00 | 84 | 1010.1 |
| 20260503071602 | 73 | 26 | 0.0 | 0.0 | 0.00 | 0.00 | 0.00 | 84 | 1010.0 |
| 20260503071059 | 73 | 26 | 0.0 | 0.0 | 0.00 | 0.00 | 0.00 | 84 | 1010.2 |
| 20260503070555 | 73 | 26 | 0.0 | 0.0 | 0.00 | 0.00 | 0.00 | 84 | 1010.3 |
| 20260503055014 | 74 | 26 | 1.0 | 1.0 | 0.00 | 0.00 | 0.00 | 83 | 1010.9 |
| 20260503054510 | 74 | 26 | 0.0 | 0.0 | 0.00 | 0.00 | 0.00 | 83 | 1011.0 |
| 20260503054008 | 74 | 26 | 0.0 | 0.0 | 0.00 | 0.00 | 0.00 | 83 | 1010.6 |
| 20260503053506 | 74 | 26 | 0.0 | 0.0 | 0.00 | 0.00 | 0.00 | 82 | 1011.0 |
| 20260503053003 | 74 | 26 | 1.0 | 1.0 | 0.00 | 0.00 | 0.00 | 82 | 1010.8 |
| 20260503052500 | 74 | 26 | 0.0 | 0.0 | 0.00 | 0.00 | 0.00 | 82 | 1011.1 |
| 20260503051956 | 75 | 26 | 1.0 | 1.0 | 0.00 | 0.00 | 0.00 | 82 | 1011.1 |
| 20260503051452 | 75 | 26 | 0.0 | 0.0 | 0.00 | 0.00 | 0.00 | 81 | 1011.1 |
| 20260503050949 | 75 | 26 | 0.0 | 0.0 | 0.00 | 0.00 | 0.00 | 81 | 1011.1 |
| 20260503050445 | 75 | 26 | 1.0 | 1.0 | 0.00 | 0.00 | 0.00 | 81 | 1011.0 |
| 20260503045943 | 75 | 26 | 0.0 | 0.0 | 0.00 | 0.00 | 0.00 | 81 | 1011.0 |
| 20260503045440 | 75 | 27 | 1.0 | 1.0 | 0.00 | 0.00 | 0.00 | 81 | 1011.2 |
| 20260503044937 | 74 | 26 | 1.0 | 1.0 | 0.00 | 0.00 | 0.00 | 81 | 1011.1 |
| 20260503044433 | 74 | 26 | 1.0 | 1.0 | 0.00 | 0.00 | 0.00 | 81 | 1011.2 |
| 20260503043931 | 75 | 26 | 0.0 | 0.0 | 0.00 | 0.00 | 0.00 | 81 | 1011.3 |
| 20260503043427 | 75 | 26 | 0.0 | 1.0 | 0.00 | 0.00 | 0.00 | 81 | 1011.2 |
| 20260503042924 | 75 | 29 | 0.0 | 0.0 | 0.00 | 0.00 | 0.00 | 81 | 1011.3 |
| 20260503042421 | 75 | 29 | 0.0 | 0.0 | 0.00 | 0.00 | 0.00 | 80 | 1011.5 |
| 20260503041917 | 75 | 29 | 0.0 | 0.0 | 0.00 | 0.00 | 0.00 | 80 | 1011.6 |
| 20260503041414 | 75 | 29 | 1.0 | 1.0 | 0.00 | 0.00 | 0.00 | 80 | 1011.7 |
| 20260503040911 | 75 | 29 | 0.0 | 0.0 | 0.00 | 0.00 | 0.00 | 80 | 1011.5 |
| 20260503040409 | 75 | 29 | 1.0 | 1.0 | 0.00 | 0.00 | 0.00 | 79 | 1011.5 |
| 20260503035906 | 75 | 29 | 1.0 | 1.0 | 0.00 | 0.00 | 0.00 | 79 | 1011.8 |
| 20260503035403 | 75 | 29 | 0.0 | 0.0 | 0.00 | 0.00 | 0.00 | 79 | 1011.5 |
| 20260503034900 | 75 | 29 | 1.0 | 0.0 | 0.00 | 0.00 | 0.00 | 79 | 1011.6 |
| 20260503034357 | 75 | 29 | 1.0 | 1.0 | 0.00 | 0.00 | 0.00 | 78 | 1011.7 |
| 20260503033854 | 76 | 30 | 1.0 | 1.0 | 0.00 | 0.00 | 0.00 | 78 | 1011.7 |
| 20260503033352 | 76 | 30 | 1.0 | 1.0 | 0.00 | 0.00 | 0.00 | 78 | 1011.6 |
| 20260503032850 | 76 | 47 | 1.0 | 1.0 | 0.00 | 0.00 | 0.00 | 77 | 1011.7 |
| 20260503032349 | 76 | 51 | 1.0 | 1.0 | 0.00 | 0.00 | 0.00 | 77 | 1011.5 |
| 20260503031845 | 76 | 52 | 1.0 | 1.0 | 0.00 | 0.00 | 0.00 | 77 | 1011.7 |
| 20260503031343 | 76 | 53 | 0.0 | 0.0 | 0.00 | 0.00 | 0.00 | 76 | 1011.7 |
| 20260503030839 | 77 | 53 | 1.0 | 1.0 | 0.00 | 0.00 | 0.00 | 76 | 1011.8 |
| 20260503030336 | 77 | 53 | 0.0 | 0.0 | 0.00 | 0.00 | 0.00 | 76 | 1011.4 |
| 20260503025833 | 77 | 53 | 0.0 | 0.0 | 0.00 | 0.00 | 0.00 | 75 | 1011.7 |
| 20260503025330 | 78 | 53 | 0.0 | 0.0 | 0.00 | 0.00 | 0.00 | 74 | 1011.6 |
| 20260503024827 | 78 | 53 | 1.0 | 1.0 | 0.00 | 0.00 | 0.00 | 74 | 1011.7 |
| 20260503024324 | 78 | 54 | 1.0 | 1.0 | 0.00 | 0.00 | 0.00 | 74 | 1011.6 |
| 20260503023820 | 78 | 54 | 0.0 | 0.0 | 0.00 | 0.00 | 0.00 | 74 | 1011.6 |
| 20260503023318 | 78 | 54 | 0.0 | 0.0 | 0.00 | 0.00 | 0.00 | 74 | 1011.6 |
| 20260503022814 | 78 | 54 | 0.0 | 0.0 | 0.00 | 0.00 | 0.00 | 73 | 1011.7 |
| 20260503022314 | 78 | 61 | 1.0 | 1.0 | 0.00 | 0.00 | 0.00 | 73 | 1011.8 |
| 20260503021811 | 78 | 52 | 1.0 | 1.0 | 0.00 | 0.00 | 0.00 | 73 | 1011.6 |
| 20260503021307 | 78 | 51 | 0.0 | 0.0 | 0.00 | 0.00 | 0.00 | 73 | 1011.4 |
| 20260503020805 | 78 | 54 | 1.0 | 0.0 | 0.00 | 0.00 | 0.00 | 73 | 1011.5 |
| 20260503020303 | 78 | 44 | 1.0 | 1.0 | 0.00 | 0.00 | 0.00 | 73 | 1011.4 |
| 20260503015758 | 78 | 29 | 0.0 | 0.0 | 0.00 | 0.00 | 0.00 | 73 | 1011.2 |
| 20260503015256 | 79 | 57 | 0.0 | 0.0 | 0.00 | 0.00 | 0.00 | 74 | 1011.3 |
| 20260503014751 | 79 | 56 | 1.0 | 1.0 | 0.00 | 0.00 | 0.00 | 74 | 1011.3 |
| 20260503014249 | 79 | 56 | 1.0 | 1.0 | 0.00 | 0.00 | 0.00 | 73 | 1011.2 |
| 20260503013746 | 79 | 49 | 2.0 | 2.0 | 0.00 | 0.00 | 0.00 | 73 | 1011.2 |
| 20260503013244 | 79 | 43 | 1.0 | 1.0 | 0.00 | 0.00 | 0.00 | 73 | 1010.9 |
| 20260503012741 | 79 | 41 | 1.0 | 1.0 | 0.00 | 0.00 | 0.00 | 73 | 1010.8 |
| 20260503012238 | 80 | 54 | 1.0 | 1.0 | 0.00 | 0.00 | 0.00 | 72 | 1010.9 |
| 20260503011735 | 80 | 64 | 2.0 | 2.0 | 0.00 | 0.00 | 0.00 | 72 | 1010.8 |
| 20260503011232 | 80 | 60 | 2.0 | 2.0 | 0.00 | 0.00 | 0.00 | 72 | 1010.8 |
| 20260503010728 | 80 | 46 | 2.0 | 2.0 | 0.00 | 0.00 | 0.00 | 71 | 1010.9 |
| 20260503010225 | 80 | 35 | 2.0 | 2.0 | 0.00 | 0.00 | 0.00 | 72 | 1010.6 |
| 20260503005722 | 80 | 12 | 2.0 | 2.0 | 0.00 | 0.00 | 0.00 | 72 | 1010.5 |
| 20260503005220 | 80 | 53 | 1.0 | 1.0 | 0.00 | 0.00 | 0.00 | 72 | 1010.5 |
| 20260503004715 | 80 | 53 | 1.0 | 1.0 | 0.00 | 0.00 | 0.00 | 72 | 1010.5 |
| 20260503004214 | 80 | 57 | 1.0 | 1.0 | 0.00 | 0.00 | 0.00 | 72 | 1010.6 |
| 20260503003711 | 80 | 53 | 2.0 | 2.0 | 0.00 | 0.00 | 0.00 | 72 | 1010.5 |
| 20260503003208 | 80 | 47 | 1.0 | 1.0 | 0.00 | 0.00 | 0.00 | 72 | 1010.4 |
| 20260503002704 | 80 | 52 | 2.0 | 2.0 | 0.00 | 0.00 | 0.00 | 72 | 1010.4 |
| 20260503002202 | 80 | 57 | 1.0 | 1.0 | 0.00 | 0.00 | 0.00 | 71 | 1010.3 |
| 20260503001657 | 80 | 47 | 1.0 | 1.0 | 0.00 | 0.00 | 0.00 | 71 | 1010.3 |
| 20260503001154 | 80 | 47 | 3.0 | 3.0 | 0.00 | 0.00 | 0.00 | 71 | 1010.0 |
| 20260503000652 | 80 | 71 | 1.0 | 1.0 | 0.00 | 0.00 | 0.00 | 71 | 1010.1 |
| 20260503000149 | 81 | 50 | 2.0 | 2.0 | 0.00 | 0.00 | 0.00 | 70 | 1009.9 |
| 20260502235646 | 81 | 62 | 2.0 | 2.0 | 0.00 | 0.00 | 0.00 | 70 | 1009.9 |
| 20260502235144 | 81 | 49 | 3.0 | 3.0 | 0.00 | 0.00 | 0.00 | 69 | 1010.2 |
| 20260502234639 | 82 | 69 | 3.0 | 3.0 | 0.00 | 0.00 | 0.00 | 68 | 1009.9 |
| 20260502234137 | 82 | 51 | 4.0 | 4.0 | 0.00 | 0.00 | 0.00 | 68 | 1010.0 |
| 20260502233633 | 82 | 92 | 2.0 | 2.0 | 0.00 | 0.00 | 0.00 | 68 | 1009.6 |
| 20260502233130 | 82 | 97 | 4.0 | 4.0 | 0.00 | 0.00 | 0.00 | 69 | 1009.7 |
| 20260502232625 | 82 | 81 | 2.0 | 2.0 | 0.00 | 0.00 | 0.00 | 69 | 1009.6 |
| 20260502232123 | 82 | 126 | 4.0 | 6.0 | 0.00 | 0.00 | 0.00 | 69 | 1009.6 |
| 20260502231619 | 82 | 70 | 4.0 | 4.0 | 0.00 | 0.00 | 0.00 | 68 | 1009.4 |
| 20260502231118 | 82 | 62 | 5.0 | 4.0 | 0.00 | 0.00 | 0.00 | 68 | 1009.4 |
| 20260502230616 | 82 | 95 | 5.0 | 6.0 | 0.00 | 0.00 | 0.00 | 68 | 1009.3 |
| 20260502230114 | 82 | 102 | 3.0 | 3.0 | 0.00 | 0.00 | 0.00 | 68 | 1009.4 |
| 20260502225609 | 83 | 97 | 6.0 | 6.0 | 0.00 | 0.00 | 0.00 | 68 | 1009.3 |
| 20260502225107 | 83 | 88 | 3.0 | 3.0 | 0.00 | 0.00 | 0.00 | 67 | 1009.1 |
| 20260502224602 | 83 | 98 | 5.0 | 7.0 | 0.00 | 0.00 | 0.00 | 67 | 1009.2 |
| 20260502224100 | 83 | 76 | 5.0 | 6.0 | 0.00 | 0.00 | 0.00 | 66 | 1009.2 |
| 20260502223557 | 83 | 98 | 4.0 | 6.0 | 0.00 | 0.00 | 0.00 | 66 | 1009.2 |
| 20260502223056 | 84 | 96 | 6.0 | 8.0 | 0.00 | 0.00 | 0.00 | 65 | 1009.2 |
| 20260502222553 | 84 | 41 | 6.0 | 6.0 | 0.00 | 0.00 | 0.00 | 65 | 1009.1 |
| 20260502222049 | 84 | 119 | 6.0 | 8.0 | 0.00 | 0.00 | 0.00 | 64 | 1009.0 |
| 20260502221544 | 85 | 57 | 6.0 | 7.0 | 0.00 | 0.00 | 0.00 | 63 | 1009.0 |
| 20260502221042 | 85 | 86 | 4.0 | 4.0 | 0.00 | 0.00 | 0.00 | 63 | 1008.9 |